Showing default

TIANLIAN-3 01, 100172

Orbit data source: Space-Track

TIANLIAN-3 01, 100172 is a payload satellite owned by CAST (CN) in HEO that was launched on Wed, 29 Jul 2026 UTC launched from the Wenchang Satellite Launch Center (WSC). Payload-class satellites include a variety of spacecraft equipped with specific instruments for various scientific and technological missions. These include communications satellites like Starlink; space stations such as the ISS; scientific satellites like the Hubble; Earth observation satellites from companies like Planet Labs, Umbra, and HawkEye 360; GPS; miniature CubeSats for education and research; and military/defense satellites.

Loading next visibility...
Identifier
100172, 2026-172A
Orbit
HEO
Country
Flag of CNCN / PRC
Related business
Manufacturer
CAST
Mission
Operational spacecraft
Bus & Motor
DFH-4E, FY-25
Mass
~6,000 kg wet, ~3,000 kg dry
Launch date (UTC)
2026-07-29 (2 weeks ago)
Launch vehicle
Unknown
Launch site
Wenchang Satellite Launch Center (WSC)
Object type
Payload
Rocket body
Debris
Shape & HBR
BOX + 2 PAN + DISH, 1.1 m
Radar Cross Section
RCS unknown

Expand to show TLE details & history
Last TLE update: 2 weeks ago

TLE from 2 weeks ago
0 TIANLIAN-3 01
1 A0172U 26172A   26210.73258231  .00007279  00000-0  10443-2 0  9999
2 A0172  15.4420 145.4634 7295286 179.7295 181.2239  2.28006376    26
Epoch: 2026-07-29T17:34Z
TLE epoch observation values (Epoch: 2026-07-29T17:34:55.111Z)
Latitude
0.00011°
Longitude
-65.68096°
Altitude
35,809.04 km
Speed
1.597 km/s
True Right ascension
09h 41m 43s
True Declination
0° 00' 00"
Sunlit
Object was in daylight at epoch
Visualization orbit readout
Latitude
Unknown
Longitude
Unknown
Altitude
Unknown
Speed
Unknown
Apparent Right ascension
Unknown
Apparent Declination
Unknown
Sunlit
N/A
Visualization observer readout
Local Sidereal Time
12:53:49
Azimuth
Unknown
Elevation
Unknown
Doppler factor
Unknown
Orbital elements
Apogee altitude
35,803.334 km
Perigee altitude
218.39 km
Semi-major axis
24,388.999 km
Eccentricity
0.72953
Inclination
15.442°
RAAN
145.4634°
Arg. of periapsis
179.7295°
True anomaly
180.27985°
Mean anomaly
181.2239°
Eccentric anomaly
180.70766°
Mean motion
0.56984 °/min
Orbital period
631.76 mins
BSTAR
0.0010443
Loading maneuver chart data...
Computing Atmospheric mass density...
Loading historical data...
Loading historical data...
Loading historical data...
Loading historical data...
Loading historical data...
Loading historical data...
Loading historical data...
Other satellites on launch #172 in the year 2026 (2026-07-29 UTC)

Documentation

Showing up to 5 results
|